EUTELSAT 9B

Last updated on Nov. 18, 2019, 4:21 a.m. UTC

1 41310U 16005A   19321.14173243  .00000070  00000-0  00000+0 0  9998
2 41310   0.1057  86.3317 0005679 186.9557 202.6788  1.00272756 14008
UTC
Height (km)
Latitude
Longitude
Inclination
Orbital Period
UTC large
Height (km)
Speed (km/s)
/
Latitude / Longitude
Inclination (degrees)
Orbital Period (minutes)
Azimuth
Elevation
Range (km)
Doppler Factor
iOS Compass Heading
iOS Angle

Next 30 passes for location: Hong Kong

Rise time Rise Azimuth (degrees) Set time Set Azimuth (degrees) Duration Max altitude (degrees)

No matching passes for this satellites